Hourly Data Report for October 22, 2019

All times are specified in Local Standard Time (LST). Add 1 hour to adjust for Daylight Saving Time where and when it is observed.

EUREKA CLIMATE
NUNAVUT
Current Station Operator: ECCC - MSC

79°59'21.000" N
85°56'02.000" W
10.00 m
2401199
71613
NEK

Download Data

Hourly Data (October 2019)
Hourly Data Report for October 22, 2019
TIME Temp Definition
°C
Dew Point Definition
°C
Rel Hum Definition
%
Wind Dir Definition
10's deg

Wind Spd Definition
km/h
Visibility Definition
km
Stn Press Definition
kPa
Hmdx Definition


Wind Chill Definition


Weather Definition


00:00 -23.2 -25.2 84 7 2   102.59   -25 LegendNANA
01:00 -24.8 -27.0 82 4 7   102.57   -31 LegendNANA
02:00 -24.2 -26.3 83 2 5   102.51   -29 LegendNANA
03:00 -23.3 -25.2 84 7 4   102.48   -27 LegendNANA
04:00 -24.2 -26.4 82 8 7   102.47   -31 LegendNANA
05:00 -25.1 -27.2 82 6 6   102.39   -31 LegendNANA
06:00 -24.8 -27.0 82 5 6   102.37   -31 LegendNANA
07:00 -25.3 -27.6 81 4 6   102.37   -31 LegendNANA
08:00 -24.3 -26.5 82 6 6   102.32   -30 LegendNANA
09:00 -23.8 -25.9 83 6 6   102.28   -29 LegendNANA
10:00 -25.5 -27.8 81 4 6   102.25   -31 LegendNANA
11:00 -23.7 -25.7 83 9 5   102.22   -28 LegendNANA
12:00 -25.6 -27.9 81 3 8   102.19   -33 LegendNANA
13:00 -24.3 -26.5 83 3 8   102.17   -31 LegendNANA
14:00 -23.9 -26.0 83 4 7   102.16   -30 LegendNANA
15:00 -22.2 -24.2 84 6 3   102.11   -25 LegendNANA
16:00 -21.2 -23.0 86 11 7   102.08   -27 LegendNANA
17:00 -21.4 -23.2 85 3 4   102.05   -25 LegendNANA
18:00 -20.6 -22.3 86 11 4   102.05   -24 LegendNANA
19:00 -19.8 -21.4 87 12 4   102.01   -23 LegendNANA
20:00 -20.1 -21.7 87 10 7   101.97   -26 LegendNANA
21:00 -19.5 -21.1 87 10 7   101.94   -25 LegendNANA
22:00 -19.4 -21.0 87 9 3   101.91   -22 LegendNANA
23:00 -19.1 -20.6 88 11 3   101.87   -22 LegendNANA

Notes on Data Quality.

Legend

  • E = Estimated
  • M = Missing
  • NA = Not Available
Date modified: